EZY420B LIRP-LIRN

Flight info

Callsign EZY420B
Flight time 0h 50m
Altitude 19000
Route DOCME M729 PNZ
Aircraft A20N/M-SDE2E3FGHIRWXY/LB1

Departure

Time 2026-04-23 20:43
Airport Pisa International Airport (LIRP)

Arrival

Time 2026-04-23 21:34
Airport Naples International Airport (LIRN)
Time Latitude Longitude Altitude Speed Heading
2026-04-23 20:03 43.69768 10.39861 15 ft 0 kts
2026-04-23 20:32 43.69759 10.39859 15 ft 2 kts 10°
2026-04-23 20:32 43.69749 10.39857 15 ft 2 kts 11°
2026-04-23 20:32 43.69728 10.39851 15 ft 2 kts 14°
2026-04-23 20:32 43.69712 10.39844 15 ft 2 kts 26°
2026-04-23 20:33 43.69699 10.39831 17 ft 2 kts 56°
2026-04-23 20:33 43.69696 10.39824 16 ft 0 kts 59°
2026-04-23 20:36 43.69699 10.39830 17 ft 3 kts 59°
2026-04-23 20:36 43.69700 10.39868 16 ft 6 kts 95°
2026-04-23 20:36 43.69692 10.39943 15 ft 10 kts 101°
2026-04-23 20:37 43.69685 10.40002 16 ft 2 kts 98°
2026-04-23 20:37 43.69679 10.40037 15 ft 5 kts 113°
2026-04-23 20:37 43.69637 10.40056 15 ft 8 kts 171°
2026-04-23 20:37 43.69571 10.40070 15 ft 11 kts 172°
2026-04-23 20:38 43.69484 10.40087 17 ft 13 kts 172°
2026-04-23 20:38 43.69405 10.40100 22 ft 9 kts 172°
2026-04-23 20:38 43.69355 10.40156 23 ft 11 kts 126°
2026-04-23 20:38 43.69329 10.40206 18 ft 0 kts 127°
2026-04-23 20:40 43.69317 10.40228 19 ft 6 kts 127°
2026-04-23 20:41 43.69286 10.40286 20 ft 5 kts 127°
2026-04-23 20:41 43.69273 10.40309 19 ft 1 kts 126°
2026-04-23 20:41 43.69260 10.40323 19 ft 4 kts 156°
2026-04-23 20:41 43.69232 10.40308 21 ft 6 kts 217°
2026-04-23 20:42 43.69229 10.40305 21 ft 0 kts 219°
2026-04-23 20:42 43.69226 10.40301 20 ft 8 kts 219°
2026-04-23 20:43 43.68977 10.40043 18 ft 80 kts 216°
2026-04-23 20:43 43.68374 10.39423 19 ft 134 kts 217°
2026-04-23 20:43 43.67562 10.38595 397 ft 142 kts 217°
2026-04-23 20:43 43.66751 10.37789 925 ft 146 kts 217°
2026-04-23 20:44 43.65921 10.36985 1430 ft 148 kts 217°
2026-04-23 20:44 43.65062 10.36166 1901 ft 155 kts 217°
2026-04-23 20:44 43.64126 10.35256 2254 ft 173 kts 217°
2026-04-23 20:44 43.63104 10.34222 2645 ft 193 kts 217°
2026-04-23 20:45 43.61950 10.33033 3022 ft 219 kts 217°
2026-04-23 20:45 43.60664 10.31681 3581 ft 243 kts 217°
2026-04-23 20:45 43.59276 10.30183 4177 ft 266 kts 217°
2026-04-23 20:45 43.57791 10.28536 5029 ft 278 kts 217°
2026-04-23 20:46 43.56282 10.26824 5943 ft 288 kts 217°
2026-04-23 20:46 43.54701 10.25042 6796 ft 297 kts 213°
2026-04-23 20:46 43.52864 10.23842 7771 ft 295 kts 194°
2026-04-23 20:46 43.50861 10.23067 8759 ft 298 kts 191°
2026-04-23 20:47 43.48827 10.22358 9735 ft 303 kts 191°
2026-04-23 20:47 43.46781 10.21628 10584 ft 312 kts 192°
2026-04-23 20:47 43.44606 10.20818 10965 ft 336 kts 193°
2026-04-23 20:47 43.42262 10.19913 11360 ft 357 kts 194°
2026-04-23 20:48 43.39875 10.18971 12147 ft 363 kts 194°
2026-04-23 20:48 43.37417 10.17994 13002 ft 368 kts 195°
2026-04-23 20:48 43.34956 10.17016 13834 ft 373 kts 195°
2026-04-23 20:48 43.32437 10.16018 14606 ft 377 kts 195°
2026-04-23 20:49 43.29922 10.15024 15397 ft 380 kts 195°
2026-04-23 20:49 43.27354 10.14011 16164 ft 383 kts 195°
2026-04-23 20:49 43.24796 10.13003 16911 ft 387 kts 195°
2026-04-23 20:49 43.22185 10.11975 17662 ft 391 kts 195°
2026-04-23 20:50 43.19556 10.10941 18395 ft 395 kts 195°
2026-04-23 20:50 43.16892 10.09917 19007 ft 399 kts 191°
2026-04-23 20:50 43.14151 10.09609 19608 ft 400 kts 174°
2026-04-23 20:50 43.11416 10.10421 20193 ft 400 kts 156°
2026-04-23 20:51 43.08946 10.12097 20792 ft 402 kts 148°
2026-04-23 20:51 43.06510 10.14046 21403 ft 405 kts 147°
2026-04-23 20:51 43.04062 10.16033 22011 ft 410 kts 147°
2026-04-23 20:51 43.01599 10.17988 22606 ft 414 kts 148°
2026-04-23 20:52 42.99069 10.19951 23194 ft 419 kts 148°
2026-04-23 20:52 42.96533 10.21888 23771 ft 423 kts 148°
2026-04-23 20:52 42.93942 10.23852 24282 ft 426 kts 148°
2026-04-23 20:52 42.91335 10.25822 24816 ft 428 kts 148°
2026-04-23 20:53 42.88736 10.27784 25316 ft 431 kts 148°
2026-04-23 20:53 42.86075 10.29792 25802 ft 434 kts 148°
2026-04-23 20:53 42.83438 10.31779 26293 ft 437 kts 149°
2026-04-23 20:53 42.80751 10.33803 26764 ft 440 kts 149°
2026-04-23 20:54 42.78081 10.35813 27084 ft 443 kts 149°
2026-04-23 20:54 42.75390 10.37883 27161 ft 442 kts 146°
2026-04-23 20:54 42.72898 10.40282 27162 ft 439 kts 138°
2026-04-23 20:54 42.70637 10.43097 27160 ft 437 kts 131°
2026-04-23 20:55 42.68582 10.46135 27159 ft 436 kts 130°
2026-04-23 20:55 42.66523 10.49180 27159 ft 436 kts 130°
2026-04-23 20:55 42.64477 10.52186 27159 ft 436 kts 130°
2026-04-23 20:55 42.62420 10.55200 27159 ft 436 kts 130°
2026-04-23 20:56 42.60341 10.58239 27173 ft 437 kts 130°
2026-04-23 20:56 42.58286 10.61238 27151 ft 436 kts 130°
2026-04-23 20:56 42.56208 10.64268 27152 ft 436 kts 130°
2026-04-23 20:56 42.54158 10.67255 27152 ft 436 kts 130°
2026-04-23 20:57 42.52079 10.70281 27154 ft 436 kts 130°
2026-04-23 20:57 42.50016 10.73281 27149 ft 437 kts 130°
2026-04-23 20:57 42.47931 10.76310 27149 ft 437 kts 130°
2026-04-23 20:57 42.45875 10.79293 27149 ft 437 kts 130°
2026-04-23 20:58 42.43792 10.82311 27149 ft 437 kts 130°
2026-04-23 20:58 42.41725 10.85302 27149 ft 437 kts 130°
2026-04-23 20:58 42.39659 10.88289 27149 ft 437 kts 130°
2026-04-23 20:58 42.37569 10.91306 27149 ft 437 kts 130°
2026-04-23 20:59 42.35482 10.94318 27149 ft 437 kts 130°
2026-04-23 20:59 42.33426 10.97286 27146 ft 437 kts 130°
2026-04-23 20:59 42.31327 11.00314 27146 ft 437 kts 130°
2026-04-23 20:59 42.29266 11.03285 27146 ft 437 kts 130°
2026-04-23 21:00 42.27196 11.06267 27147 ft 437 kts 130°
2026-04-23 21:00 42.25098 11.09285 27148 ft 437 kts 130°
2026-04-23 21:00 42.23032 11.12252 27148 ft 437 kts 130°
2026-04-23 21:00 42.20936 11.15259 27148 ft 437 kts 130°
2026-04-23 21:01 42.18868 11.18224 27147 ft 437 kts 130°
2026-04-23 21:01 42.16770 11.21229 27146 ft 437 kts 130°
2026-04-23 21:01 42.14676 11.24225 27146 ft 437 kts 130°
2026-04-23 21:01 42.12610 11.27178 27143 ft 437 kts 130°
2026-04-23 21:02 42.10514 11.30170 27154 ft 437 kts 130°
2026-04-23 21:02 42.08439 11.33130 27137 ft 437 kts 130°
2026-04-23 21:02 42.06341 11.36117 27137 ft 437 kts 130°
2026-04-23 21:02 42.04246 11.39100 27144 ft 437 kts 130°
2026-04-23 21:03 42.02169 11.42054 27138 ft 437 kts 130°
2026-04-23 21:03 42.00068 11.45037 27138 ft 437 kts 130°
2026-04-23 21:03 41.97998 11.47972 27130 ft 437 kts 130°
2026-04-23 21:03 41.95891 11.50958 27130 ft 437 kts 130°
2026-04-23 21:04 41.93815 11.53897 27129 ft 437 kts 130°
2026-04-23 21:04 41.91703 11.56884 27129 ft 437 kts 130°
2026-04-23 21:04 41.89623 11.59822 27130 ft 437 kts 130°
2026-04-23 21:04 41.87522 11.62787 27124 ft 437 kts 130°
2026-04-23 21:05 41.85424 11.65745 27125 ft 437 kts 131°
2026-04-23 21:05 41.83321 11.68708 27136 ft 438 kts 131°
2026-04-23 21:05 41.81211 11.71677 27135 ft 438 kts 131°
2026-04-23 21:05 41.79130 11.74606 27139 ft 438 kts 131°
2026-04-23 21:06 41.77037 11.77567 27139 ft 437 kts 130°
2026-04-23 21:06 41.74937 11.80541 27148 ft 437 kts 130°
2026-04-23 21:06 41.72854 11.83488 27144 ft 438 kts 130°
2026-04-23 21:06 41.70751 11.86459 27144 ft 438 kts 131°
2026-04-23 21:07 41.68666 11.89391 27142 ft 438 kts 131°
2026-04-23 21:07 41.66547 11.92345 27133 ft 438 kts 131°
2026-04-23 21:07 41.64445 11.95266 27132 ft 438 kts 131°
2026-04-23 21:07 41.62320 11.98216 27129 ft 438 kts 131°
2026-04-23 21:08 41.60215 12.01137 27119 ft 438 kts 131°
2026-04-23 21:08 41.58094 12.04080 27115 ft 438 kts 131°
2026-04-23 21:08 41.55992 12.06994 27115 ft 438 kts 131°
2026-04-23 21:08 41.53892 12.09902 27115 ft 436 kts 131°
2026-04-23 21:09 41.51770 12.12839 27106 ft 437 kts 131°
2026-04-23 21:09 41.49668 12.15746 27103 ft 437 kts 131°
2026-04-23 21:09 41.47554 12.18669 27112 ft 437 kts 131°
2026-04-23 21:09 41.45435 12.21599 27112 ft 437 kts 131°
2026-04-23 21:10 41.43353 12.24477 27103 ft 437 kts 131°
2026-04-23 21:10 41.41231 12.27408 27105 ft 437 kts 131°
2026-04-23 21:10 41.39132 12.30303 27110 ft 437 kts 131°
2026-04-23 21:10 41.37009 12.33228 27111 ft 437 kts 131°
2026-04-23 21:11 41.34890 12.36145 27108 ft 437 kts 131°
2026-04-23 21:11 41.32796 12.39024 27101 ft 437 kts 131°
2026-04-23 21:11 41.30674 12.41938 26965 ft 437 kts 131°
2026-04-23 21:11 41.28558 12.44840 26711 ft 433 kts 131°
2026-04-23 21:12 41.26481 12.47687 26461 ft 431 kts 131°
2026-04-23 21:12 41.24392 12.50547 26211 ft 429 kts 131°
2026-04-23 21:12 41.22301 12.53409 25960 ft 428 kts 131°
2026-04-23 21:12 41.20250 12.56214 25723 ft 426 kts 131°
2026-04-23 21:13 41.18177 12.59050 25465 ft 424 kts 131°
2026-04-23 21:13 41.16123 12.61859 25228 ft 423 kts 131°
2026-04-23 21:13 41.14094 12.64630 24991 ft 421 kts 131°
2026-04-23 21:13 41.12041 12.67431 24749 ft 420 kts 131°
2026-04-23 21:14 41.10026 12.70177 24515 ft 418 kts 131°
2026-04-23 21:14 41.07987 12.72954 24025 ft 420 kts 131°
2026-04-23 21:14 41.06629 12.74802 23642 ft 420 kts 131°
2026-04-23 21:14 41.04584 12.77580 23043 ft 416 kts 130°
2026-04-23 21:15 41.02587 12.80289 22459 ft 411 kts 130°
2026-04-23 21:15 41.00592 12.82994 21883 ft 406 kts 130°
2026-04-23 21:15 40.98643 12.85637 21318 ft 401 kts 130°
2026-04-23 21:15 40.96693 12.88277 20752 ft 397 kts 130°
2026-04-23 21:16 40.94761 12.90894 20183 ft 393 kts 130°
2026-04-23 21:16 40.92889 12.93466 19635 ft 389 kts 128°
2026-04-23 21:16 40.91240 12.96287 19078 ft 382 kts 120°
2026-04-23 21:16 40.89938 12.99287 18567 ft 375 kts 112°
2026-04-23 21:17 40.88860 13.02443 18029 ft 374 kts 110°
2026-04-23 21:17 40.87806 13.05531 17529 ft 370 kts 111°
2026-04-23 21:17 40.86738 13.08629 17029 ft 368 kts 111°
2026-04-23 21:17 40.85666 13.11725 16541 ft 366 kts 111°
2026-04-23 21:18 40.84615 13.14755 16048 ft 363 kts 111°
2026-04-23 21:18 40.83575 13.17747 15561 ft 359 kts 110°
2026-04-23 21:18 40.82527 13.20758 15082 ft 358 kts 110°
2026-04-23 21:18 40.81498 13.23713 14605 ft 355 kts 110°
2026-04-23 21:19 40.80462 13.26683 14130 ft 352 kts 110°
2026-04-23 21:19 40.79446 13.29592 13628 ft 350 kts 110°
2026-04-23 21:19 40.78435 13.32488 13253 ft 346 kts 110°
2026-04-23 21:19 40.77424 13.35382 13157 ft 345 kts 110°
2026-04-23 21:20 40.76418 13.38258 13145 ft 347 kts 110°
2026-04-23 21:20 40.75400 13.41164 13143 ft 347 kts 110°
2026-04-23 21:20 40.74265 13.43944 13139 ft 352 kts 121°
2026-04-23 21:20 40.72611 13.46377 13143 ft 358 kts 135°
2026-04-23 21:21 40.70602 13.48311 13147 ft 361 kts 141°
2026-04-23 21:21 40.68534 13.50213 13154 ft 360 kts 141°
2026-04-23 21:21 40.66486 13.52107 13108 ft 355 kts 141°
2026-04-23 21:21 40.64592 13.54096 12759 ft 347 kts 128°
2026-04-23 21:22 40.63319 13.56705 12134 ft 339 kts 106°
2026-04-23 21:22 40.62889 13.59648 11958 ft 315 kts 91°
2026-04-23 21:22 40.62749 13.62445 11768 ft 294 kts 89°
2026-04-23 21:22 40.62620 13.65023 11600 ft 276 kts 90°
2026-04-23 21:23 40.62462 13.67465 11449 ft 258 kts 91°
2026-04-23 21:23 40.62283 13.69762 11148 ft 248 kts 91°
2026-04-23 21:23 40.62093 13.71986 10680 ft 246 kts 92°
2026-04-23 21:23 40.61892 13.74231 10189 ft 245 kts 92°
2026-04-23 21:24 40.61697 13.76452 9672 ft 242 kts 88°
2026-04-23 21:24 40.61921 13.78566 9131 ft 233 kts 65°
2026-04-23 21:24 40.62740 13.80388 8616 ft 230 kts 51°
2026-04-23 21:24 40.63680 13.82072 8283 ft 229 kts 52°
2026-04-23 21:25 40.64608 13.83782 7947 ft 228 kts 52°
2026-04-23 21:25 40.65522 13.85482 7610 ft 228 kts 52°
2026-04-23 21:25 40.66428 13.87167 7323 ft 226 kts 53°
2026-04-23 21:25 40.67334 13.88859 7002 ft 225 kts 53°
2026-04-23 21:26 40.68244 13.90559 6677 ft 225 kts 53°
2026-04-23 21:26 40.69134 13.92224 6381 ft 224 kts 53°
2026-04-23 21:26 40.70038 13.93912 6048 ft 223 kts 53°
2026-04-23 21:26 40.70905 13.95539 5954 ft 214 kts 53°
2026-04-23 21:27 40.71743 13.97109 5865 ft 204 kts 53°
2026-04-23 21:27 40.72552 13.98617 5489 ft 200 kts 53°
2026-04-23 21:27 40.73354 14.00107 5105 ft 201 kts 53°
2026-04-23 21:27 40.74162 14.01610 4816 ft 199 kts 53°
2026-04-23 21:28 40.74954 14.03085 4498 ft 199 kts 53°
2026-04-23 21:28 40.75753 14.04574 4172 ft 198 kts 53°
2026-04-23 21:28 40.76539 14.06048 4000 ft 191 kts 53°
2026-04-23 21:28 40.77276 14.07442 3973 ft 176 kts 53°
2026-04-23 21:29 40.77998 14.08716 3989 ft 178 kts 52°
2026-04-23 21:29 40.78695 14.10035 3992 ft 176 kts 53°
2026-04-23 21:29 40.79411 14.11383 3888 ft 178 kts 53°
2026-04-23 21:29 40.80109 14.12708 3619 ft 177 kts 54°
2026-04-23 21:30 40.80813 14.14040 3337 ft 175 kts 54°
2026-04-23 21:30 40.81501 14.15344 3063 ft 170 kts 54°
2026-04-23 21:30 40.82142 14.16560 2806 ft 155 kts 54°
2026-04-23 21:30 40.82733 14.17684 2567 ft 142 kts 54°
2026-04-23 21:31 40.83271 14.18702 2370 ft 130 kts 54°
2026-04-23 21:31 40.83782 14.19671 2157 ft 126 kts 53°
2026-04-23 21:31 40.84280 14.20615 1962 ft 126 kts 54°
2026-04-23 21:31 40.84782 14.21567 1757 ft 125 kts 54°
2026-04-23 21:32 40.85294 14.22538 1553 ft 130 kts 53°
2026-04-23 21:32 40.85811 14.23500 1368 ft 130 kts 52°
2026-04-23 21:32 40.86397 14.24529 1110 ft 151 kts 53°
2026-04-23 21:32 40.86979 14.25688 933 ft 147 kts 57°
2026-04-23 21:33 40.87528 14.26806 672 ft 143 kts 56°
2026-04-23 21:33 40.88036 14.27880 376 ft 134 kts 57°
2026-04-23 21:33 40.88503 14.28863 281 ft 117 kts 58°
2026-04-23 21:33 40.88876 14.29656 251 ft 78 kts 58°
2026-04-23 21:34 40.89058 14.30041 239 ft 21 kts 58°
2026-04-23 21:34 40.89045 14.30127 237 ft 12 kts 149°
2026-04-23 21:34 40.88990 14.30174 237 ft 0 kts 149°
2026-04-23 21:35 40.88989 14.30175 237 ft 1 kts 149°
2026-04-23 21:35 40.88970 14.30187 238 ft 4 kts 170°
2026-04-23 21:35 40.88952 14.30170 238 ft 4 kts 219°
2026-04-23 21:35 40.88931 14.30138 240 ft 5 kts 233°
2026-04-23 21:36 40.88876 14.30042 243 ft 8 kts 232°
2026-04-23 21:36 40.88838 14.29978 245 ft 9 kts 232°
2026-04-23 21:36 40.88795 14.29904 248 ft 11 kts 232°
2026-04-23 21:37 40.88748 14.29821 251 ft 12 kts 234°
2026-04-23 21:37 40.88696 14.29727 253 ft 13 kts 232°
2026-04-23 21:37 40.88638 14.29630 256 ft 13 kts 231°
2026-04-23 21:37 40.88591 14.29551 259 ft 9 kts 234°
2026-04-23 21:38 40.88554 14.29485 261 ft 10 kts 232°
2026-04-23 21:38 40.88502 14.29394 263 ft 14 kts 233°
2026-04-23 21:38 40.88441 14.29291 266 ft 14 kts 233°
2026-04-23 21:38 40.88379 14.29184 269 ft 15 kts 231°
2026-04-23 21:39 40.88316 14.29073 271 ft 15 kts 233°
2026-04-23 21:39 40.88250 14.28961 274 ft 16 kts 233°
2026-04-23 21:39 40.88182 14.28844 277 ft 16 kts 231°
2026-04-23 21:39 40.88114 14.28723 280 ft 17 kts 233°
2026-04-23 21:40 40.88040 14.28597 283 ft 17 kts 233°
2026-04-23 21:40 40.87961 14.28484 286 ft 16 kts 219°
2026-04-23 21:40 40.87941 14.28378 288 ft 11 kts 280°
2026-04-23 21:40 40.87950 14.28287 290 ft 9 kts 277°
2026-04-23 21:41 40.87957 14.28217 292 ft 6 kts 277°
2026-04-23 21:41 40.87962 14.28167 291 ft 6 kts 278°
2026-04-23 21:41 40.87954 14.28107 296 ft 7 kts 230°
2026-04-23 21:41 40.87929 14.28069 296 ft 4 kts 231°
2026-04-23 21:42 40.87916 14.28049 297 ft 1 kts 231°
2026-04-23 21:42 40.87914 14.28045 298 ft 3 kts 230°
2026-04-23 21:42 40.87888 14.28038 297 ft 5 kts 161°
2026-04-23 21:42 40.87851 14.28075 297 ft 5 kts 142°
2026-04-23 21:43 40.87840 14.28087 297 ft 0 kts 141°